This demonstration page uses our WeatherBlox Daily Observations layout. Learn more.

Hourly Observations for January 18, 2021

Temp ( °F °C ) Dew Point ( °F °C ) Humidity (%) Winds ( mph kmh ) Pressure ( in mb ) Visibility ( mi km ) Precip ( " mm )
12:15 am 00:15 Mostly Cloudy 35 1.7 17 -8.6 47 47 Calm 29.9 1012 10 16.0934 0 0
12:35 am 00:35 Mostly Cloudy 36 2.1 17 -8.6 45 45 S 5 7 29.88 1012 10 16.0934 0 0
12:55 am 00:55 Partly Cloudy 35 1.7 17 -8.5 47 47 SSW 6 9 29.89 1012 10 16.0934 0 0
1:15 am 01:15 Partly Cloudy 34 1.1 17 -8.4 50 50 Calm 29.87 1012 10 16.0934 0 0
1:35 am 01:35 Partly Cloudy 31 -0.7 19 -7.2 62 62 Calm 29.89 1012 10 16.0934 0 0
1:55 am 01:55 Mostly Cloudy 33 0.4 17 -8.1 53 53 Calm 29.88 1012 10 16.0934 0 0
2:15 am 02:15 Cloudy 33 0.5 17 -8.1 53 53 S 3 6 29.88 1012 10 16.0934 0 0
2:35 am 02:35 Cloudy 33 0.5 20 -6.5 60 60 Calm 29.88 1012 10 16.0934 0 0
2:55 am 02:55 Partly Cloudy 33 0.5 20 -6.5 60 60 Calm 29.88 1012 10 16.0934 0 0
3:15 am 03:15 Partly Cloudy 33 0.8 19 -7.1 56 56 Calm 29.88 1012 10 16.0934 0 0
3:35 am 03:35 Mostly Cloudy 32 0.1 21 -6.1 63 63 Calm 29.87 1012 10 16.0934 0 0
3:55 am 03:55 Mostly Cloudy 32 0.1 21 -6.1 63 63 WSW 3 6 29.87 1012 10 16.0934 0 0
4:15 am 04:15 Mostly Cloudy 33 0.5 20 -6.6 59 59 WSW 6 9 29.87 1011 10 16.0934 0 0
4:35 am 04:35 Mostly Cloudy 35 1.8 19 -7.5 51 51 WSW 6 9 29.86 1011 10 16.0934 0 0
4:55 am 04:55 Cloudy 35 1.8 19 -7.5 51 51 W 7 11 29.87 1011 10 16.0934 0 0
5:15 am 05:15 Partly Cloudy 35 1.8 20 -6.7 54 54 W 9 15 29.87 1011 10 16.0934 0 0
5:35 am 05:35 Clear 36 2.3 23 -5.2 58 58 W 9 15 29.86 1011 10 16.0934 0 0
5:55 am 05:55 Clear 36 2 23 -5 60 60 WNW 8 13 29.9 1012 10 16.0934 0 0
6:15 am 06:15 Clear 35 1.8 26 -3.6 68 68 NW 8 13 29.9 1012 10 16.0934 0 0
6:35 am 06:35 Clear 37 2.5 27 -3 67 67 WNW 12 19 29.9 1013 10 16.0934 0 0
6:55 am 06:55 Clear 36 2.2 26 -3.4 67 67 NW 12 19 29.91 1013 10 16.0934 0 0
7:15 am 07:15 Clear 35 1.9 26 -3.4 68 68 NNW 13 20 29.93 1013 10 16.0934 0 0
7:35 am 07:35 Clear 35 1.8 26 -3.2 70 70 NNW 14 22 29.93 1013 10 16.0934 0 0
7:55 am 07:55 Clear 35 1.8 27 -3 71 71 NNW 12 19 29.94 1014 10 16.0934 0 0
8:15 am 08:15 Mostly Cloudy 35 1.6 27 -2.6 74 74 NNW 9 15 29.95 1014 10 16.0934 0 0
8:35 am 08:35 Cloudy 36 2 28 -2.4 73 73 NW 8 13 29.97 1015 10 16.0934 0 0
8:55 am 08:55 Mostly Cloudy 35 1.7 28 -2.1 76 76 NW 9 15 29.98 1015 10 16.0934 0 0
9:15 am 09:15 Partly Cloudy 38 3.1 28 -2 70 70 NW 14 22 29.97 1015 10 16.0934 0 0
9:35 am 09:35 Sunny 39 3.8 29 -1.5 69 69 NW 14 22 29.98 1015 10 16.0934 0 0
9:55 am 09:55 Sunny 40 4.5 28 -2.2 62 62 NNW 20 31 29.98 1015 10 16.0934 0 0
10:15 am 10:15 Mostly Cloudy 40 4.5 28 -2.3 62 62 NW 21 33 29.99 1016 10 16.0934 0 0
10:35 am 10:35 Cloudy 39 4 27 -2.6 62 62 NW 23 37 30.01 1016 10 16.0934 0 0
10:55 am 10:55 Cloudy 40 4.2 27 -2.6 62 62 NW 21 33 30.02 1016 10 16.0934 0 0
11:15 am 11:15 Cloudy 40 4.5 28 -2.5 61 61 NW 22 35 30.01 1016 10 16.0934 0 0
11:35 am 11:35 Cloudy 41 4.9 28 -2.5 59 59 NW 17 28 30.01 1016 10 16.0934 0 0
11:55 am 11:55 Cloudy 41 5 27 -2.8 57 57 NW 22 35 30.01 1016 10 16.0934 0 0
12:15 pm 12:15 Cloudy 42 5.5 27 -2.6 56 56 NNW 16 26 29.99 1016 10 16.0934 0 0
12:35 pm 12:35 Cloudy 43 5.9 27 -2.7 54 54 NNW 16 26 29.99 1016 10 16.0934 0 0
12:55 pm 12:55 Cloudy 42 5.8 27 -2.9 54 54 NNW 17 28 29.99 1016 10 16.0934 0 0
1:15 pm 13:15 Cloudy 44 6.6 27 -2.7 52 52 NW 17 28 29.98 1015 10 16.0934 0 0
1:35 pm 13:35 Mostly Cloudy 43 6.2 28 -2.5 54 54 NNW 13 20 30 1016 10 16.0934 0 0
1:55 pm 13:55 Partly Cloudy 44 6.5 27 -3 51 51 NNW 16 26 29.99 1016 10 16.0934 0 0
2:15 pm 14:15 Partly Cloudy 43 6.3 26 -3.2 51 51 N 13 20 30.01 1016 10 16.0934 0 0
2:35 pm 14:35 Partly Cloudy 44 6.8 26 -3.2 49 49 NNW 10 17 30 1016 10 16.0934 0 0
2:55 pm 14:55 Partly Cloudy 44 6.9 26 -3.1 49 49 NNW 13 20 30 1016 10 16.0934 0 0
3:15 pm 15:15 Sunny 45 7 26 -3.4 48 48 NNW 7 11 30 1016 10 16.0934 0 0
3:35 pm 15:35 Sunny 45 7 25 -3.7 47 47 NNW 8 13 30.01 1016 10 16.0934 0 0
3:55 pm 15:55 Sunny 45 7.2 26 -3.6 47 47 N 10 17 30.02 1017 10 16.0934 0 0
4:15 pm 16:15 Partly Cloudy 45 7 26 -3.5 48 48 N 5 7 30.02 1017 10 16.0934 0 0
4:35 pm 16:35 Partly Cloudy 44 6.7 26 -3.5 49 49 Calm 30.02 1017 10 16.0934 0 0
4:55 pm 16:55 Sunny 44 6.4 25 -3.7 49 49 Calm 30.04 1017 10 16.0934 0 0
5:15 pm 17:15 Mostly Cloudy 43 5.9 25 -3.7 51 51 WNW 6 9 30.06 1018 10 16.0934 0 0
5:35 pm 17:35 Mostly Cloudy 40 4.6 30 -0.9 68 68 W 8 13 30.07 1018 10 16.0934 0 0
5:55 pm 17:55 Partly Cloudy 37 2.8 30 -1.1 76 76 WSW 6 9 30.09 1019 10 16.0934 0 0
6:15 pm 18:15 Partly Cloudy 38 3.1 31 -0.3 79 79 WSW 6 9 30.11 1019 10 16.0934 0 0
6:35 pm 18:35 Partly Cloudy 38 3.2 31 -0.8 75 75 WNW 9 15 30.12 1020 10 16.0934 0 0
6:55 pm 18:55 Cloudy 37 3 30 -1.3 74 74 NW 9 15 30.14 1021 10 16.0934 0 0
7:15 pm 19:15 Cloudy 38 3.3 30 -1.1 73 73 NW 8 13 30.14 1021 10 16.0934 0 0
7:35 pm 19:35 Partly Cloudy 36 2.4 29 -1.4 76 76 NW 7 11 30.16 1021 10 16.0934 0 0
7:55 pm 19:55 Clear 33 0.8 28 -2.1 81 81 NW 6 9 30.19 1022 10 16.0934 0 0
8:15 pm 20:15 Partly Cloudy 32 0 28 -2.5 83 83 NW 7 11 30.21 1023 10 16.0934 0 0
8:35 pm 20:35 Clear 31 -0.5 26 -3.1 83 83 NW 7 11 30.22 1023 10 16.0934 0 0
8:55 pm 20:55 Clear 34 0.9 29 -1.9 82 82 NNW 9 15 30.22 1023 10 16.0934 0 0
9:15 pm 21:15 Clear 34 1.1 28 -2.1 79 79 NNW 10 17 30.23 1024 10 16.0934 0 0
9:35 pm 21:35 Partly Cloudy 33 0.5 28 -2.3 82 82 NW 7 11 30.25 1024 10 16.0934 0 0
9:55 pm 21:55 Clear 33 0.5 28 -2.5 81 81 NNW 8 13 30.25 1024 10 16.0934 0 0
10:15 pm 22:15 Clear 32 0.2 27 -2.6 82 82 NNW 9 15 30.26 1025 10 16.0934 0 0
10:35 pm 22:35 Partly Cloudy 33 0.4 28 -2.5 81 81 N 9 15 30.28 1025 10 16.0934 0 0
10:55 pm 22:55 Mostly Cloudy 33 0.6 28 -2.4 81 81 NNW 13 20 30.29 1026 10 16.0934 0 0
11:15 pm 23:15 Mostly Cloudy 34 1.3 28 -2.5 76 76 NNW 10 17 30.29 1026 10 16.0934 0 0
11:35 pm 23:35 Partly Cloudy 33 0.5 27 -3 78 78 NNW 10 17 30.31 1026 10 16.0934 0 0
11:55 pm 23:55 Partly Cloudy 32 0 26 -3.2 79 79 NNW 12 19 30.33 1027 10 16.0934 0 0

Powered by AerisWeather